Charlottetown, Prince Edward Island

3:51 AM AST on February 23, 2017 (GMT -0400)
Charlottetown

Weather History for CYYG - October, 2013

Change the Weather History Date:

Wednesday, October 23, 2013

  Actual Average Record
Temperature  
Mean Temperature 44 °F -  
Max Temperature 52 °F 46 °F 68 °F (2007)
Min Temperature 35 °F 32 °F 28 °F (1997)
Degree Days  
Heating Degree Days 22    
Moisture  
Dew Point 43 °F    
Average Humidity 87    
Maximum Humidity 100    
Minimum Humidity 47    
Precipitation  
Precipitation 0.04 in 0.16 in - ()
Sea Level Pressure  
Sea Level Pressure 29.65 in    
Wind  
Wind Speed 8 mph ()    
Max Wind Speed 18 mph    
Max Gust Speed 24 mph    
Visibility 11.8 miles    
Events Rain    
Averages and records for this station are not official NWS values.
T = Trace of Precipitation, MM = Missing Value Source: Averaged Metar Reports

Daily Weather History Graph

Daily Weather History Graph

Search for Another Location

Airport or City:

Trip Planner

Search our weather history database for the weather conditions in past years. The results will help you decide how hot, cold, wet, or windy it might be!

Date:

Astronomy

Oct. 23, 2013 Rise Set
Actual Time 7:41 AM ADT 6:11 PM ADT
Civil Twilight 7:10 AM ADT 6:42 PM ADT
Nautical Twilight 6:35 AM ADT 7:17 PM ADT
Astronomical Twilight 6:00 AM ADT 7:52 PM ADT
Moon 9:30 PM ADT 12:03 PM ADT
Length of Visible Light 11h 32m
Length of Day
10h 30m
Waning Gibbous, 80% of the Moon is Illuminated
Oct 23
Waning Gibbous
Oct 26
Last Quarter
Nov 3
New
Nov 10
First Quarter
Nov 17
Full

Hourly Weather History & Observations

Time (ADT) Temp. Windchill Dew Point Humidity Pressure Visibility Wind Dir Wind Speed Gust Speed Precip Events Conditions
12:00 AM 51.8 °F - 50.0 °F 94% 29.73 in 6.0 mi SSE 11.5 mph - N/A Rain Rain
12:07 AM 51.8 °F - 50.0 °F 94% 29.73 in 5.0 mi SSE 12.7 mph - N/A Rain Rain
1:00 AM 51.8 °F - 50.0 °F 94% 29.70 in 6.0 mi SSE 13.8 mph - N/A Rain Rain
2:00 AM 51.8 °F - 50.0 °F 94% 29.67 in 5.0 mi SSE 15.0 mph 24.2 mph N/A Rain Rain
2:27 AM 51.8 °F - 50.0 °F 94% 29.66 in 6.0 mi SSE 18.4 mph - N/A Rain Light Rain
2:36 AM 51.8 °F - 51.8 °F 100% 29.68 in 2.0 mi WSW 13.8 mph 21.9 mph N/A Rain Heavy Rain
2:50 AM 53.6 °F - 51.8 °F 94% 29.69 in 4.0 mi SW 12.7 mph - N/A Rain Rain
3:00 AM 53.6 °F - 51.8 °F 94% 29.68 in 4.0 mi South 11.5 mph - N/A Rain Rain
3:11 AM 51.8 °F - 51.8 °F 100% 29.67 in 8.0 mi South 9.2 mph - N/A Rain Light Rain
4:00 AM 51.8 °F - 51.8 °F 100% 29.67 in 6.0 mi SW 5.8 mph - N/A Rain Light Rain
4:32 AM 51.8 °F - 51.8 °F 100% 29.66 in 8.0 mi SW 3.5 mph - N/A Rain Light Rain
5:00 AM 51.8 °F - 50.0 °F 94% 29.65 in 8.0 mi South 5.8 mph - N/A Rain Light Rain
5:31 AM 50.0 °F - 46.4 °F 87% 29.66 in 10.0 mi WNW 10.4 mph - N/A   Overcast
6:00 AM 48.2 °F - 46.4 °F 93% 29.65 in 15.0 mi WNW 5.8 mph - N/A   Overcast
7:00 AM 44.6 °F 40.2 °F 42.8 °F 93% 29.67 in 15.0 mi WNW 8.1 mph - N/A   Scattered Clouds
8:00 AM 42.8 °F 38.0 °F 42.8 °F 100% 29.68 in 15.0 mi WNW 8.1 mph - N/A   Mostly Cloudy
9:00 AM 45 °F - 42 °F 87% 29.70 in 15 mi West 4.6 mph - -   Partly Cloudy
9:00 AM 44.6 °F 42.2 °F 42.8 °F 93% 29.70 in 15.0 mi West 4.6 mph - N/A   Mostly Cloudy
10:00 AM 46.4 °F 42.4 °F 42.8 °F 87% 29.69 in 15.0 mi WNW 8.1 mph - N/A   Scattered Clouds
11:00 AM 48.2 °F - 41.0 °F 76% 29.70 in 15.0 mi NW 5.8 mph - N/A   Scattered Clouds
12:00 PM 50.0 °F - 41.0 °F 71% 29.69 in 15.0 mi North 5.8 mph - N/A   Mostly Cloudy
1:00 PM 50.0 °F - 39.2 °F 66% 29.67 in 15.0 mi WNW 3.5 mph - N/A   Scattered Clouds
2:00 PM 50.0 °F - 37.4 °F 62% 29.65 in 15.0 mi Calm Calm - N/A   Scattered Clouds
3:00 PM 51 °F - 37 °F 47% 29.63 in 15 mi WNW 3.5 mph - -   Scattered Clouds
3:00 PM 50.0 °F - 37.4 °F 62% 29.63 in 15.0 mi NNW 3.5 mph - N/A   Scattered Clouds
4:00 PM 51.8 °F - 37.4 °F 58% 29.62 in 15.0 mi NNE 5.8 mph - N/A   Partly Cloudy
5:00 PM 48.2 °F - 37.4 °F 66% 29.62 in 15.0 mi NE 9.2 mph - N/A   Partly Cloudy
6:00 PM 44.6 °F 41.4 °F 35.6 °F 71% 29.60 in 15.0 mi NNE 5.8 mph - N/A   Partly Cloudy
7:00 PM 42.8 °F - 35.6 °F 76% 29.62 in 15.0 mi Calm Calm - N/A   Scattered Clouds
8:00 PM 37.4 °F - 35.6 °F 93% 29.62 in 15.0 mi NNE 2.3 mph - N/A   Scattered Clouds
8:18 PM 35.6 °F 31.7 °F 35.6 °F 100% 29.61 in 15.0 mi North 4.6 mph - N/A   Mostly Cloudy
9:00 PM 36 °F - 34 °F 91% 29.60 in 15 mi ENE 2.3 mph - -   Partly Cloudy
9:00 PM 35.6 °F - 33.8 °F 93% 29.60 in 15.0 mi NE 2.3 mph - N/A   Scattered Clouds
10:00 PM 37.4 °F - 35.6 °F 93% 29.58 in 15.0 mi NNE 2.3 mph - N/A   Mostly Cloudy
10:19 PM 35.6 °F - 35.6 °F 100% 29.57 in 15.0 mi North 2.3 mph - N/A   Scattered Clouds
11:00 PM 37.4 °F - 35.6 °F 93% 29.54 in 15.0 mi North 2.3 mph - N/A   Mostly Cloudy
11:12 PM 35.6 °F - 35.6 °F 100% 29.53 in 15.0 mi East 2.3 mph - N/A   Mostly Cloudy